Check out our new BloomSky Weather System.

Active alerts


No alerts


Thunder radar  blitzortung!


Rain radar more information rain snow radar


Visit our other weather sites:

Template documentation
and downloads

And another site



Weather Underground History page Text

Daily Summary for March 8, 2017 Units:  Metric    English   Both
« Previous Day
Next Day »
Daily Weekly Monthly Yearly Custom
  High: Low: Average:
Temperature: -17.8 °C 14.8 °C 18.5 °C
Dew Point: -17.8 °C 6.4 °C 12.1 °C
Humidity: Humidity % 42 % 68 %
Wind Speed: 0 km/h 0 km/h 4.2 km/h
Wind Gust: 0 km/h - -
Wind:- - ESE
Pressure: 0 hPa 1022.2 hPa -
Precipitation: 0 mm    
Historical Graphs
 
 
Tabular Data for March 8, 2017
Time Temperature Dew Point Pressure Wind Wind Speed Wind Gust Humidity Rainfall Rate (Hourly)
-17.8 °C -17.8 °C 0 hPa Calm     Humidity % 0 mm
00:04 16.4 °C 10.5 °C 1024.9 hPa ENE 3.2 km/h 12.9 km/h 68 % 0 mm
00:09 16.4 °C 10.5 °C 1024.9 hPa NE 3.2 km/h 12.9 km/h 68 % 0 mm
00:14 16.4 °C 10.5 °C 1024.9 hPa North 1.6 km/h 12.9 km/h 68 % 0 mm
00:19 16.3 °C 10.4 °C 1024.9 hPa North 6.4 km/h 12.9 km/h 68 % 0 mm
00:24 16.3 °C 10.6 °C 1024.9 hPa NE 6.4 km/h 9.7 km/h 69 % 0 mm
00:29 16.3 °C 10.6 °C 1024.9 hPa Calm   9.7 km/h 69 % 0 mm
00:34 16.3 °C 10.6 °C 1024.9 hPa ESE 6.4 km/h 9.7 km/h 69 % 0 mm
00:39 16.3 °C 10.6 °C 1024.9 hPa NE 8 km/h 11.3 km/h 69 % 0 mm
00:44 16.2 °C 10.3 °C 1024.9 hPa NNW 1.6 km/h 11.3 km/h 68 % 0 mm
00:49 16.2 °C 10.5 °C 1024.6 hPa ENE 1.6 km/h 16.1 km/h 69 % 0 mm
00:54 16.2 °C 10.3 °C 1024.6 hPa ENE 1.6 km/h 16.1 km/h 68 % 0 mm
00:59 16.2 °C 10.3 °C 1024.9 hPa ESE 6.4 km/h 19.3 km/h 68 % 0 mm
01:04 16.2 °C 10.5 °C 1024.9 hPa Calm   19.3 km/h 69 % 0 mm
01:09 16.2 °C 10.3 °C 1024.9 hPa ESE 1.6 km/h 19.3 km/h 68 % 0 mm
01:14 16.1 °C 10.2 °C 1024.6 hPa NE 1.6 km/h 14.5 km/h 68 % 0 mm
01:19 16.1 °C 10 °C 1024.6 hPa East 4.8 km/h 14.5 km/h 67 % 0 mm
01:24 16.1 °C 10 °C 1024.6 hPa East 1.6 km/h 14.5 km/h 67 % 0 mm
01:29 16.1 °C 10 °C 1024.6 hPa East 4.8 km/h 11.3 km/h 67 % 0 mm
01:34 16.1 °C 9.7 °C 1024.9 hPa NE 3.2 km/h 12.9 km/h 66 % 0 mm
01:39 16.1 °C 9.5 °C 1024.9 hPa NNW 1.6 km/h 12.9 km/h 65 % 0 mm
01:44 16.1 °C 9.5 °C 1024.9 hPa NNE 1.6 km/h 12.9 km/h 65 % 0 mm
01:49 16.1 °C 9.5 °C 1024.9 hPa NNE 3.2 km/h 12.9 km/h 65 % 0 mm
01:54 16.1 °C 9.5 °C 1024.6 hPa Calm   12.9 km/h 65 % 0 mm
01:59 16.1 °C 9.5 °C 1024.6 hPa Calm   9.7 km/h 65 % 0 mm
02:04 16.1 °C 8.8 °C 1024.6 hPa East 6.4 km/h 9.7 km/h 62 % 0 mm
02:09 16.1 °C 8.6 °C 1024.6 hPa ENE 1.6 km/h 9.7 km/h 61 % 0 mm
02:14 16.1 °C 8.6 °C 1024.3 hPa NW 1.6 km/h 9.7 km/h 61 % 0 mm
02:19 16.1 °C 8.6 °C 1024.3 hPa Calm   12.9 km/h 61 % 0 mm
02:24 16.1 °C 8.6 °C 1024.3 hPa NW 1.6 km/h 12.9 km/h 61 % 0 mm
02:29 16 °C 8.5 °C 1024.3 hPa East 3.2 km/h 12.9 km/h 61 % 0 mm
02:34 16 °C 8.2 °C 1024.3 hPa NE 4.8 km/h 11.3 km/h 60 % 0 mm
02:39 15.9 °C 8.1 °C 1024.3 hPa East 8 km/h 11.3 km/h 60 % 0 mm
02:44 15.9 °C 8.1 °C 1024.3 hPa North 4.8 km/h 11.3 km/h 60 % 0 mm
02:49 15.9 °C 8.4 °C 1023.9 hPa North 1.6 km/h 9.7 km/h 61 % 0 mm
02:54 15.9 °C 8.6 °C 1023.9 hPa NNW 1.6 km/h 9.7 km/h 62 % 0 mm
02:59 15.8 °C 8.3 °C 1023.9 hPa NE 3.2 km/h 9.7 km/h 61 % 0 mm
03:05 15.8 °C 8.3 °C 1023.9 hPa Calm   9.7 km/h 61 % 0 mm
03:10 15.8 °C 8.5 °C 1023.9 hPa NE 4.8 km/h 9.7 km/h 62 % 0 mm
03:15 15.8 °C 8.5 °C 1023.9 hPa Calm   8 km/h 62 % 0 mm
03:20 15.7 °C 8.7 °C 1023.9 hPa Calm   9.7 km/h 63 % 0 mm
03:25 15.7 °C 8.7 °C 1023.9 hPa NNE 1.6 km/h 9.7 km/h 63 % 0 mm
03:30 15.6 °C 8.6 °C 1023.9 hPa ENE 3.2 km/h 9.7 km/h 63 % 0 mm
03:35 15.6 °C 8.3 °C 1023.9 hPa ENE 8 km/h 9.7 km/h 62 % 0 mm
03:40 15.6 °C 8.3 °C 1023.9 hPa NE 1.6 km/h 11.3 km/h 62 % 0 mm
03:45 15.6 °C 8.6 °C 1023.9 hPa NW 1.6 km/h 11.3 km/h 63 % 0 mm
03:50 15.5 °C 8.2 °C 1023.9 hPa East 1.6 km/h 9.7 km/h 62 % 0 mm
03:55 15.5 °C 8 °C 1023.9 hPa ENE 1.6 km/h 9.7 km/h 61 % 0 mm
04:00 15.5 °C 8 °C 1023.9 hPa ENE 6.4 km/h 9.7 km/h 61 % 0 mm
04:05 15.5 °C 8 °C 1023.9 hPa ENE 1.6 km/h 9.7 km/h 61 % 0 mm
04:10 15.4 °C 7.7 °C 1023.9 hPa ENE 8 km/h 12.9 km/h 60 % 0 mm
04:15 15.4 °C 7.7 °C 1023.9 hPa Calm   12.9 km/h 60 % 0 mm
04:20 15.4 °C 7.7 °C 1023.9 hPa ENE 3.2 km/h 12.9 km/h 60 % 0 mm
04:25 15.4 °C 7.9 °C 1023.9 hPa ENE 4.8 km/h 9.7 km/h 61 % 0 mm
04:30 15.3 °C 8.1 °C 1023.9 hPa NNW 1.6 km/h 9.7 km/h 62 % 0 mm
04:35 15.3 °C 8.1 °C 1023.9 hPa NNE 3.2 km/h 9.7 km/h 62 % 0 mm
04:40 15.3 °C 8.1 °C 1023.9 hPa NE 1.6 km/h 9.7 km/h 62 % 0 mm
04:45 15.2 °C 8 °C 1023.9 hPa NNW 1.6 km/h 8 km/h 62 % 0 mm
04:50 15.2 °C 8 °C 1023.9 hPa North 4.8 km/h 8 km/h 62 % 0 mm
04:55 15.2 °C 7.7 °C 1023.9 hPa Calm   8 km/h 61 % 0 mm
05:00 15.2 °C 7.5 °C 1023.9 hPa NE 1.6 km/h 9.7 km/h 60 % 0 mm
05:05 15.2 °C 7.5 °C 1023.9 hPa Calm   9.7 km/h 60 % 0 mm
05:10 15.2 °C 7.2 °C 1024.3 hPa East 1.6 km/h 9.7 km/h 59 % 0 mm
05:15 15.2 °C 7.2 °C 1024.3 hPa North 1.6 km/h 6.4 km/h 59 % 0 mm
05:20 15.2 °C 7 °C 1024.3 hPa Calm   6.4 km/h 58 % 0 mm
05:25 15.3 °C 7.3 °C 1024.3 hPa North 3.2 km/h 6.4 km/h 59 % 0 mm
05:30 15.3 °C 7.3 °C 1024.3 hPa ENE 6.4 km/h 6.4 km/h 59 % 0 mm
05:35 15.2 °C 7.2 °C 1023.9 hPa East 6.4 km/h 8 km/h 59 % 0 mm
05:40 15.2 °C 6.7 °C 1023.9 hPa East 1.6 km/h 8 km/h 57 % 0 mm
05:45 15.3 °C 7.1 °C 1024.3 hPa NE 1.6 km/h 8 km/h 58 % 0 mm
05:50 15.3 °C 6.8 °C 1024.3 hPa NNE 1.6 km/h 8 km/h 57 % 0 mm
05:55 15.3 °C 6.8 °C 1024.3 hPa NE 4.8 km/h 8 km/h 57 % 0 mm
06:00 15.2 °C 6.5 °C 1024.3 hPa NNW 1.6 km/h 8 km/h 56 % 0 mm
06:05 15.2 °C 6.7 °C 1024.3 hPa North 6.4 km/h 8 km/h 57 % 0 mm
06:10 15.1 °C 6.6 °C 1024.3 hPa Calm   8 km/h 57 % 0 mm
06:15 15 °C 6.8 °C 1024.3 hPa Calm   8 km/h 58 % 0 mm
06:20 14.9 °C 6.7 °C 1024.3 hPa NNE 1.6 km/h 8 km/h 58 % 0 mm
06:26 14.9 °C 7 °C 1024.3 hPa NNW 3.2 km/h 4.8 km/h 59 % 0 mm
06:30 14.9 °C 7 °C 1024.3 hPa Calm   4.8 km/h 59 % 0 mm
06:36 14.8 °C 7.1 °C 1024.6 hPa East 1.6 km/h 4.8 km/h 60 % 0 mm
06:41 14.8 °C 7.1 °C 1024.6 hPa East 3.2 km/h 6.4 km/h 60 % 0 mm
06:46 14.8 °C 7.4 °C 1024.6 hPa NNE 1.6 km/h 6.4 km/h 61 % 0 mm
06:51 14.8 °C 7.4 °C 1024.6 hPa Calm   6.4 km/h 61 % 0 mm
06:56 14.8 °C 7.6 °C 1024.6 hPa Calm   6.4 km/h 62 % 0 mm
07:01 14.8 °C 7.4 °C 1024.6 hPa NE 3.2 km/h 6.4 km/h 61 % 0 mm
07:06 14.9 °C 7.2 °C 1024.9 hPa ENE 3.2 km/h 6.4 km/h 60 % 0 mm
07:11 14.9 °C 7.2 °C 1024.6 hPa Calm   6.4 km/h 60 % 0 mm
07:16 14.9 °C 7.2 °C 1024.6 hPa ENE 1.6 km/h 6.4 km/h 60 % 0 mm
07:21 15 °C 7.1 °C 1024.9 hPa Calm   9.7 km/h 59 % 0 mm
07:26 15.1 °C 7.4 °C 1024.9 hPa ENE 8 km/h 9.7 km/h 60 % 0 mm
07:31 15.1 °C 7.1 °C 1024.9 hPa NW 1.6 km/h 9.7 km/h 59 % 0 mm
07:36 15.2 °C 7.2 °C 1024.9 hPa NW 1.6 km/h 8 km/h 59 % 0 mm
07:41 15.2 °C 7.2 °C 1024.9 hPa North 1.6 km/h 11.3 km/h 59 % 0 mm
07:46 15.3 °C 7.6 °C 1025.3 hPa NNW 1.6 km/h 11.3 km/h 60 % 0 mm
07:51 15.3 °C 7.3 °C 1025.3 hPa NNW 4.8 km/h 11.3 km/h 59 % 0 mm
07:56 15.4 °C 7.4 °C 1025.3 hPa ENE 3.2 km/h 9.7 km/h 59 % 0 mm
08:01 15.4 °C 7.2 °C 1025.3 hPa ESE 4.8 km/h 11.3 km/h 58 % 0 mm
08:06 15.5 °C 7.3 °C 1024.9 hPa ENE 8 km/h 12.9 km/h 58 % 0 mm
08:11 15.6 °C 7.1 °C 1024.9 hPa NE 1.6 km/h 12.9 km/h 57 % 0 mm
08:16 15.6 °C 7.1 °C 1025.3 hPa ENE 1.6 km/h 12.9 km/h 57 % 0 mm
08:21 15.6 °C 6.9 °C 1025.3 hPa NE 6.4 km/h 12.9 km/h 56 % 0 mm
08:26 15.8 °C 7 °C 1025.3 hPa North 8 km/h 12.9 km/h 56 % 0 mm
08:31 16.1 °C 6.8 °C 1025.3 hPa ESE 4.8 km/h 14.5 km/h 54 % 0 mm
08:36 16.4 °C 7.3 °C 1025.3 hPa SE 6.4 km/h 14.5 km/h 55 % 0 mm
08:41 16.8 °C 6.9 °C 1025.3 hPa SE 1.6 km/h 14.5 km/h 52 % 0 mm
08:46 16.9 °C 6.4 °C 1025.3 hPa North 9.7 km/h 17.7 km/h 50 % 0 mm
08:51 17 °C 6.8 °C 1025.3 hPa ENE 6.4 km/h 17.7 km/h 51 % 0 mm
08:56 17.2 °C 6.7 °C 1025.3 hPa ENE 9.7 km/h 17.7 km/h 50 % 0 mm
09:01 17.2 °C 6.7 °C 1025.3 hPa East 4.8 km/h 17.7 km/h 50 % 0 mm
09:06 17.6 °C 7.3 °C 1025.3 hPa ENE 3.2 km/h 14.5 km/h 51 % 0 mm
09:11 17.8 °C 6.6 °C 1025.6 hPa NE 6.4 km/h 14.5 km/h 48 % 0 mm
09:16 18 °C 7.1 °C 1025.6 hPa North 1.6 km/h 14.5 km/h 49 % 0 mm
09:21 18.2 °C 7.3 °C 1025.6 hPa ENE 4.8 km/h 14.5 km/h 49 % 0 mm
09:26 18.1 °C 7.2 °C 1025.3 hPa East 6.4 km/h 12.9 km/h 49 % 0 mm
09:31 18.3 °C 6.8 °C 1025.3 hPa ENE 3.2 km/h 12.9 km/h 47 % 0 mm
09:36 18.4 °C 6.9 °C 1025.3 hPa NW 8 km/h 12.9 km/h 47 % 0 mm
09:41 18.6 °C 7.1 °C 1025.6 hPa NNE 6.4 km/h 12.9 km/h 47 % 0 mm
09:46 18.8 °C 7.2 °C 1025.6 hPa NNW 3.2 km/h 12.9 km/h 47 % 0 mm
09:51 18.9 °C 7 °C 1025.6 hPa ENE 3.2 km/h 12.9 km/h 46 % 0 mm
09:56 18.9 °C 7.3 °C 1025.6 hPa NE 6.4 km/h 12.9 km/h 47 % 0 mm
10:02 19.2 °C 6.7 °C 1025.3 hPa ESE 4.8 km/h 12.9 km/h 44 % 0 mm
10:07 19.4 °C 8.4 °C 1025.3 hPa East 8 km/h 12.9 km/h 49 % 0 mm
10:12 19.7 °C 7.4 °C 1025.3 hPa ENE 1.6 km/h 12.9 km/h 45 % 0 mm
10:17 20.1 °C 8.1 °C 1025.3 hPa NE 6.4 km/h 12.9 km/h 46 % 0 mm
10:22 20.2 °C 7.6 °C 1025.3 hPa ENE 6.4 km/h 12.9 km/h 44 % 0 mm
10:27 20.5 °C 7.8 °C 1025.3 hPa ESE 8 km/h 12.9 km/h 44 % 0 mm
10:32 20.6 °C 7.2 °C 1025.3 hPa NE 4.8 km/h 12.9 km/h 42 % 0 mm
10:37 20.7 °C 7.3 °C 1025.3 hPa SSE 6.4 km/h 12.9 km/h 42 % 0 mm
10:42 20.6 °C 7.2 °C 1025.3 hPa NNW 4.8 km/h 19.3 km/h 42 % 0 mm
10:47 20.7 °C 7.7 °C 1025.3 hPa South 4.8 km/h 19.3 km/h 43 % 0 mm
10:52 20.9 °C 8.2 °C 1025.3 hPa North 4.8 km/h 19.3 km/h 44 % 0 mm
10:57 21 °C 7.9 °C 1025.3 hPa ESE 1.6 km/h 14.5 km/h 43 % 0 mm
11:02 21.4 °C 8.6 °C 1025.3 hPa East 6.4 km/h 14.5 km/h 44 % 0 mm
11:07 21.6 °C 9.2 °C 1025.3 hPa South 3.2 km/h 12.9 km/h 45 % 0 mm
11:12 21.8 °C 9 °C 1025.3 hPa SE 3.2 km/h 14.5 km/h 44 % 0 mm
11:17 21.8 °C 9 °C 1024.9 hPa SE 4.8 km/h 14.5 km/h 44 % 0 mm
11:22 21.8 °C 9 °C 1024.9 hPa Calm   14.5 km/h 44 % 0 mm
11:27 22.1 °C 9.3 °C 1024.9 hPa North 8 km/h 14.5 km/h 44 % 0 mm
11:32 22.1 °C 9.6 °C 1024.9 hPa NE 6.4 km/h 16.1 km/h 45 % 0 mm
11:37 22.2 °C 11 °C 1024.9 hPa ENE 9.7 km/h 16.1 km/h 49 % 0 mm
11:42 22.3 °C 10.1 °C 1024.6 hPa SE 8 km/h 16.1 km/h 46 % 0 mm
11:47 22.2 °C 10 °C 1024.6 hPa SE 4.8 km/h 14.5 km/h 46 % 0 mm
11:52 22.7 °C 11.1 °C 1024.6 hPa ESE 9.7 km/h 14.5 km/h 48 % 0 mm
11:57 22.5 °C 10.6 °C 1024.6 hPa NNW 4.8 km/h 14.5 km/h 47 % 0 mm
12:02 22.4 °C 10.5 °C 1024.6 hPa ENE 6.4 km/h 12.9 km/h 47 % 0 mm
12:07 22.7 °C 11.4 °C 1024.6 hPa SE 3.2 km/h 16.1 km/h 49 % 0 mm
12:12 22.9 °C 10.7 °C 1024.6 hPa SE 4.8 km/h 16.1 km/h 46 % 0 mm
12:17 22.9 °C 11.6 °C 1024.6 hPa East 8 km/h 16.1 km/h 49 % 0 mm
12:22 23 °C 11.7 °C 1024.6 hPa SSE 6.4 km/h 16.1 km/h 49 % 0 mm
12:27 22.8 °C 11.2 °C 1024.6 hPa ESE 11.3 km/h 16.1 km/h 48 % 0 mm
12:32 22.5 °C 11.3 °C 1024.6 hPa ESE 6.4 km/h 16.1 km/h 49 % 0 mm
12:37 22.6 °C 11.3 °C 1024.6 hPa ESE 8 km/h 16.1 km/h 49 % 0 mm
12:42 22.7 °C 11.7 °C 1024.3 hPa ESE 6.4 km/h 16.1 km/h 50 % 0 mm
12:47 22.6 °C 12.2 °C 1024.3 hPa SE 3.2 km/h 16.1 km/h 52 % 0 mm
12:52 22.7 °C 12.9 °C 1024.3 hPa SE 11.3 km/h 16.1 km/h 54 % 0 mm
12:57 23.1 °C 13 °C 1024.3 hPa SE 9.7 km/h 16.1 km/h 53 % 0 mm
13:02 23.1 °C 12.7 °C 1024.3 hPa ESE 6.4 km/h 16.1 km/h 52 % 0 mm
13:07 22.9 °C 12.8 °C 1023.9 hPa SE 6.4 km/h 16.1 km/h 53 % 0 mm
13:12 22.8 °C 13.3 °C 1023.9 hPa East 8 km/h 16.1 km/h 55 % 0 mm
13:17 22.7 °C 12.9 °C 1023.6 hPa ESE 9.7 km/h 16.1 km/h 54 % 0 mm
13:22 22.6 °C 13.1 °C 1023.6 hPa East 8 km/h 16.1 km/h 55 % 0 mm
13:27 22.5 °C 13 °C 1023.6 hPa SSE 3.2 km/h 19.3 km/h 55 % 0 mm
13:32 22.7 °C 13.5 °C 1023.6 hPa ESE 11.3 km/h 19.3 km/h 56 % 0 mm
13:37 22.6 °C 13.6 °C 1023.2 hPa SSE 9.7 km/h 19.3 km/h 57 % 0 mm
13:42 22.7 °C 14 °C 1023.2 hPa SSW 1.6 km/h 16.1 km/h 58 % 0 mm
13:47 22.6 °C 13.9 °C 1023.2 hPa ESE 12.9 km/h 16.1 km/h 58 % 0 mm
13:52 22.5 °C 14.1 °C 1023.2 hPa ESE 4.8 km/h 17.7 km/h 59 % 0 mm
13:57 22.4 °C 14 °C 1023.2 hPa ESE 11.3 km/h 17.7 km/h 59 % 0 mm
14:02 22.5 °C 14.6 °C 1023.2 hPa SE 3.2 km/h 17.7 km/h 61 % 0 mm
14:07 22.6 °C 14.7 °C 1023.2 hPa ESE 11.3 km/h 20.9 km/h 61 % 0 mm
14:12 22.4 °C 14.3 °C 1023.2 hPa SE 4.8 km/h 20.9 km/h 60 % 0 mm
14:17 22.3 °C 14.4 °C 1023.2 hPa ESE 6.4 km/h 20.9 km/h 61 % 0 mm
14:22 22.3 °C 14.7 °C 1023.2 hPa East 9.7 km/h 12.9 km/h 62 % 0 mm
14:28 22.2 °C 14.6 °C 1023.2 hPa East 11.3 km/h 17.7 km/h 62 % 0 mm
14:33 22.1 °C 15 °C 1023.2 hPa SE 6.4 km/h 17.7 km/h 64 % 0 mm
14:38 22.1 °C 14.7 °C 1022.9 hPa ESE 8 km/h 17.7 km/h 63 % 0 mm
14:43 22.2 °C 15.1 °C 1022.9 hPa SSE 6.4 km/h 16.1 km/h 64 % 0 mm
14:48 22.4 °C 15.3 °C 1022.9 hPa ESE 8 km/h 16.1 km/h 64 % 0 mm
14:53 22.5 °C 15.3 °C 1022.9 hPa SSE 6.4 km/h 16.1 km/h 64 % 0 mm
14:58 22.5 °C 15.8 °C 1022.9 hPa ESE 12.9 km/h 16.1 km/h 66 % 0 mm
15:03 22.3 °C 15.6 °C 1022.9 hPa ESE 6.4 km/h 19.3 km/h 66 % 0 mm
15:08 22.3 °C 15.9 °C 1022.9 hPa SE 11.3 km/h 20.9 km/h 67 % 0 mm
15:13 22.2 °C 15.8 °C 1022.9 hPa ESE 11.3 km/h 20.9 km/h 67 % 0 mm
15:18 22.2 °C 15.8 °C 1022.9 hPa SSE 4.8 km/h 20.9 km/h 67 % 0 mm
15:23 21.9 °C 15.7 °C 1022.9 hPa SSE 14.5 km/h 17.7 km/h 68 % 0 mm
15:28 21.7 °C 15.8 °C 1022.9 hPa SE 14.5 km/h 20.9 km/h 69 % 0 mm
15:33 21.5 °C 15.8 °C 1022.9 hPa SSE 3.2 km/h 20.9 km/h 70 % 0 mm
15:38 21.4 °C 15.9 °C 1022.9 hPa SE 4.8 km/h 22.5 km/h 71 % 0 mm
15:43 21.3 °C 16 °C 1022.9 hPa SE 11.3 km/h 22.5 km/h 72 % 0 mm
15:48 21.2 °C 16.2 °C 1022.9 hPa ESE 6.4 km/h 22.5 km/h 73 % 0 mm
15:53 21.2 °C 16.4 °C 1022.9 hPa East 6.4 km/h 19.3 km/h 74 % 0 mm
15:58 21.1 °C 16.7 °C 1022.9 hPa ESE 6.4 km/h 19.3 km/h 76 % 0 mm
16:03 21 °C 16.6 °C 1022.9 hPa East 4.8 km/h 12.9 km/h 76 % 0 mm
16:08 20.8 °C 16.6 °C 1022.9 hPa ESE 4.8 km/h 12.9 km/h 77 % 0 mm
16:13 20.8 °C 16.8 °C 1022.9 hPa ESE 9.7 km/h 12.9 km/h 78 % 0 mm
16:18 20.7 °C 16.9 °C 1022.6 hPa SSE 4.8 km/h 12.9 km/h 79 % 0 mm
16:23 20.7 °C 16.9 °C 1022.6 hPa SSE 4.8 km/h 14.5 km/h 79 % 0 mm
16:28 20.7 °C 16.7 °C 1022.6 hPa SE 3.2 km/h 14.5 km/h 78 % 0 mm
16:33 20.8 °C 17 °C 1022.6 hPa East 3.2 km/h 14.5 km/h 79 % 0 mm
16:38 20.8 °C 16.8 °C 1022.6 hPa East 4.8 km/h 11.3 km/h 78 % 0 mm
16:43 20.8 °C 16.8 °C 1022.6 hPa ESE 4.8 km/h 8 km/h 78 % 0 mm
16:48 20.8 °C 16.8 °C 1022.6 hPa SSE 3.2 km/h 11.3 km/h 78 % 0 mm
16:53 20.8 °C 16.8 °C 1022.6 hPa SE 4.8 km/h 11.3 km/h 78 % 0 mm
16:58 20.8 °C 16.8 °C 1022.6 hPa East 4.8 km/h 11.3 km/h 78 % 0 mm
17:03 20.7 °C 16.9 °C 1022.6 hPa ESE 4.8 km/h 9.7 km/h 79 % 0 mm
17:08 20.6 °C 17 °C 1022.6 hPa ESE 9.7 km/h 12.9 km/h 80 % 0 mm
17:13 20.6 °C 17 °C 1022.6 hPa SE 8 km/h 12.9 km/h 80 % 0 mm
17:18 20.6 °C 17 °C 1022.6 hPa SSE 3.2 km/h 12.9 km/h 80 % 0 mm
17:23 20.6 °C 17 °C 1022.6 hPa SSE 6.4 km/h 11.3 km/h 80 % 0 mm
17:28 20.6 °C 17 °C 1022.6 hPa East 1.6 km/h 11.3 km/h 80 % 0 mm
17:34 20.7 °C 17.1 °C 1022.6 hPa ESE 6.4 km/h 11.3 km/h 80 % 0 mm
17:39 20.6 °C 17 °C 1022.2 hPa ESE 3.2 km/h 12.9 km/h 80 % 0 mm
17:44 20.5 °C 17.1 °C 1022.6 hPa NE 3.2 km/h 12.9 km/h 81 % 0 mm
17:49 20.4 °C 17 °C 1022.6 hPa ESE 4.8 km/h 12.9 km/h 81 % 0 mm
17:54 20.3 °C 17.1 °C 1022.6 hPa ESE 3.2 km/h 9.7 km/h 82 % 0 mm
17:59 20.3 °C 17.1 °C 1022.6 hPa NE 4.8 km/h 9.7 km/h 82 % 0 mm
18:04 20.2 °C 17.2 °C 1022.6 hPa SE 1.6 km/h 9.7 km/h 83 % 0 mm
18:09 20.1 °C 17.3 °C 1022.6 hPa SE 3.2 km/h 9.7 km/h 84 % 0 mm
18:14 20 °C 17.2 °C 1022.6 hPa Calm   9.7 km/h 84 % 0 mm
18:19 19.9 °C 17.3 °C 1022.6 hPa SE 4.8 km/h 8 km/h 85 % 0 mm
18:24 19.9 °C 17.3 °C 1022.6 hPa ESE 4.8 km/h 8 km/h 85 % 0 mm
18:29 19.8 °C 17.2 °C 1022.6 hPa SE 1.6 km/h 8 km/h 85 % 0 mm
18:34 19.8 °C 17.2 °C 1022.6 hPa East 3.2 km/h 8 km/h 85 % 0 mm
18:39 19.8 °C 17.2 °C 1022.6 hPa Calm   6.4 km/h 85 % 0 mm
18:44 19.8 °C 17.2 °C 1022.6 hPa East 3.2 km/h 4.8 km/h 85 % 0 mm
18:49 19.7 °C 17.1 °C 1022.6 hPa Calm   4.8 km/h 85 % 0 mm
18:54 19.7 °C 17.3 °C 1022.6 hPa ESE 1.6 km/h 6.4 km/h 86 % 0 mm
18:59 19.7 °C 17.3 °C 1022.6 hPa ESE 3.2 km/h 8 km/h 86 % 0 mm
19:04 19.6 °C 17.2 °C 1022.6 hPa ENE 1.6 km/h 8 km/h 86 % 0 mm
19:09 19.6 °C 17.2 °C 1022.6 hPa East 1.6 km/h 8 km/h 86 % 0 mm
19:14 19.6 °C 17.4 °C 1022.6 hPa Calm   4.8 km/h 87 % 0 mm
19:19 19.5 °C 17.3 °C 1022.6 hPa East 1.6 km/h 6.4 km/h 87 % 0 mm
19:24 19.5 °C 17.5 °C 1022.6 hPa East 3.2 km/h 8 km/h 88 % 0 mm
19:29 19.4 °C 17.4 °C 1022.6 hPa SE 3.2 km/h 8 km/h 88 % 0 mm
19:34 19.4 °C 17.4 °C 1022.6 hPa Calm   8 km/h 88 % 0 mm
19:39 19.4 °C 17.4 °C 1022.6 hPa ESE 3.2 km/h 6.4 km/h 88 % 0 mm
19:44 19.4 °C 17.4 °C 1022.9 hPa SE 1.6 km/h 6.4 km/h 88 % 0 mm
19:49 19.3 °C 17.3 °C 1022.9 hPa East 3.2 km/h 4.8 km/h 88 % 0 mm
19:54 19.3 °C 17.4 °C 1022.9 hPa ESE 4.8 km/h 6.4 km/h 89 % 0 mm
19:59 19.3 °C 17.4 °C 1022.9 hPa SE 1.6 km/h 6.4 km/h 89 % 0 mm
20:04 19.3 °C 17.4 °C 1022.9 hPa ESE 4.8 km/h 6.4 km/h 89 % 0 mm
20:09 19.3 °C 17.4 °C 1022.9 hPa SE 3.2 km/h 6.4 km/h 89 % 0 mm
20:14 19.3 °C 17.4 °C 1022.9 hPa SE 1.6 km/h 6.4 km/h 89 % 0 mm
20:19 19.2 °C 17.3 °C 1022.9 hPa East 3.2 km/h 6.4 km/h 89 % 0 mm
20:24 19.2 °C 17.5 °C 1023.2 hPa SE 1.6 km/h 4.8 km/h 90 % 0 mm
20:29 19.2 °C 17.5 °C 1023.2 hPa ESE 1.6 km/h 8 km/h 90 % 0 mm
20:34 19.2 °C 17.5 °C 1023.2 hPa SE 1.6 km/h 8 km/h 90 % 0 mm
20:39 19.1 °C 17.4 °C 1023.2 hPa SE 1.6 km/h 8 km/h 90 % 0 mm
20:44 19.2 °C 17.5 °C 1023.2 hPa SSE 3.2 km/h 6.4 km/h 90 % 0 mm
20:49 19.2 °C 17.5 °C 1023.2 hPa ESE 4.8 km/h 6.4 km/h 90 % 0 mm
20:54 19.2 °C 17.5 °C 1023.2 hPa SSE 1.6 km/h 8 km/h 90 % 0 mm
20:59 19.2 °C 17.5 °C 1023.2 hPa East 8 km/h 8 km/h 90 % 0 mm
21:04 19.1 °C 17.6 °C 1023.2 hPa ESE 3.2 km/h 9.7 km/h 91 % 0 mm
21:09 19.1 °C 17.6 °C 1023.2 hPa ESE 1.6 km/h 9.7 km/h 91 % 0 mm
21:15 19 °C 17.5 °C 1023.2 hPa SE 1.6 km/h 9.7 km/h 91 % 0 mm
21:20 18.9 °C 17.4 °C 1023.2 hPa East 1.6 km/h 8 km/h 91 % 0 mm
21:25 18.9 °C 17.6 °C 1023.2 hPa SE 9.7 km/h 9.7 km/h 92 % 0 mm
21:30 18.8 °C 17.5 °C 1023.2 hPa SE 1.6 km/h 11.3 km/h 92 % 0 mm
21:35 18.8 °C 17.6 °C 1023.2 hPa South 3.2 km/h 11.3 km/h 93 % 0 mm
21:36 18.8 °C 17.6 °C 1023.2 hPa ESE 1.6 km/h 11.3 km/h 93 % 0 mm
21:41 18.7 °C 17.5 °C 1023.2 hPa ESE 3.2 km/h 9.7 km/h 93 % 0 mm
21:46 18.6 °C 17.4 °C 1023.2 hPa ESE 4.8 km/h 9.7 km/h 93 % 0 mm
21:51 18.6 °C 17.6 °C 1023.2 hPa ESE 3.2 km/h 9.7 km/h 94 % 0 mm
21:56 18.6 °C 17.6 °C 1023.2 hPa ESE 3.2 km/h 9.7 km/h 94 % 0 mm
21:57 18.5 °C 17.5 °C 1023.2 hPa East 1.6 km/h 9.7 km/h 94 % 0 mm
22:02 18.5 °C 17.5 °C 1023.2 hPa East 3.2 km/h 9.7 km/h 94 % 0 mm
22:07 18.4 °C 17.4 °C 1023.2 hPa SE 4.8 km/h 8 km/h 94 % 0 mm
22:12 18.4 °C 17.6 °C 1023.2 hPa SE 1.6 km/h 8 km/h 95 % 0 mm
22:17 18.4 °C 17.6 °C 1023.2 hPa ESE 1.6 km/h 8 km/h 95 % 0 mm
22:22 18.4 °C 17.6 °C 1023.2 hPa East 3.2 km/h 8 km/h 95 % 0 mm
22:27 18.4 °C 17.6 °C 1023.2 hPa ESE 6.4 km/h 6.4 km/h 95 % 0 mm
22:32 18.3 °C 17.5 °C 1023.2 hPa SE 3.2 km/h 8 km/h 95 % 0 mm
22:37 18.3 °C 17.7 °C 1022.9 hPa ENE 1.6 km/h 8 km/h 96 % 0 mm
22:42 18.3 °C 17.7 °C 1022.9 hPa ESE 3.2 km/h 8 km/h 96 % 0 mm
22:47 18.3 °C 17.7 °C 1022.9 hPa ESE 3.2 km/h 6.4 km/h 96 % 0 mm
22:52 18.3 °C 17.7 °C 1022.9 hPa East 3.2 km/h 8 km/h 96 % 0 mm
22:57 18.3 °C 17.7 °C 1022.9 hPa ENE 4.8 km/h 8 km/h 96 % 0 mm
23:02 18.3 °C 17.7 °C 1022.6 hPa ESE 1.6 km/h 8 km/h 96 % 0 mm
23:07 18.3 °C 17.7 °C 1022.6 hPa Calm   6.4 km/h 96 % 0 mm
23:12 18.3 °C 17.8 °C 1022.6 hPa ESE 1.6 km/h 9.7 km/h 97 % 0 mm
23:17 18.3 °C 17.8 °C 1022.6 hPa ESE 3.2 km/h 9.7 km/h 97 % 0 mm
23:22 18.3 °C 17.8 °C 1022.2 hPa Calm   9.7 km/h 97 % 0 mm
23:27 18.3 °C 17.8 °C 1022.2 hPa East 1.6 km/h 4.8 km/h 97 % 0 mm
23:32 18.3 °C 17.8 °C 1022.2 hPa ESE 1.6 km/h 8 km/h 97 % 0 mm
23:37 18.3 °C 17.8 °C 1022.2 hPa East 4.8 km/h 8 km/h 97 % 0 mm
23:42 18.3 °C 17.8 °C 1022.2 hPa ENE 4.8 km/h 8 km/h 97 % 0 mm
23:47 18.3 °C 17.8 °C 1022.2 hPa ESE 3.2 km/h 6.4 km/h 97 % 0 mm
23:52 18.3 °C 17.8 °C 1022.2 hPa ESE 1.6 km/h 8 km/h 97 % 0 mm
23:57 18.3 °C 17.8 °C 1022.2 hPa ESE 1.6 km/h 8 km/h 97 % 0 mm
Spring, Texas: Villages of Bridgestone
Compliments of Weather Underground - 3.25 mb

Script developed by  Jim McMurry - jmcmurry@mwt.net Adapted for the template by  Wim van der Kuil - Leuven-Template.eu

You find our weather info also at:

UK Metoffice

WeatherCloud

Weather Underground

Mid-South Weather Network

AWEKAS

Citizen Weather Observer Program (CWOP)

HAMweather, WeatherForYou, PWS Weather

Equipment we use:

Weather-station
Davis Vantage Vue

Weather-program
Meteohub

Weather-server
Debian 7.9 x86 (Guest)

Provider
DreamHost

Davis Vantage Vue

Meteohub

Debian 7.9 x86 (Guest)

DreamHost